Location: Alsching
(48.7209°N, 14.3028°E)
Time: 17:13:44
(UTC+00:00)

Daily predictions for brighter satellites

Satellite Brightness Start Highest point End
(mag) Time Altitude Azimuth Time Altitude Azimuth Time Altitude Azimuth
Spot 2 Rocket 3.7 19:37:55 10° SSE 19:42:55 60° ENE 19:47:57 10° N
Cosmos 1745 Rocket 4.0 19:41:30 10° S 19:47:39 73° E 19:53:56 10° NNE
Landsat 7 4.0 19:44:00 10° SSE 19:48:41 61° ENE 19:53:24 10° N
Cosmos 1125 Rocket 4.4 19:45:40 10° NNW 19:50:42 48° WSW 19:55:44 10° S
USA 267 3.9 19:49:45 10° E 19:56:07 55° NNE 20:02:28 10° WNW
Meteor 1-21 Rocket 4.4 19:50:50 10° S 19:56:45 87° E 20:02:43 10° NNE
SPOT 1/Viking Rocket 3.7 19:52:01 10° SSE 19:57:04 62° ENE 20:02:11 10° N
Alouette 2 Rocket 3.7 19:57:02 10° N 20:00:46 63° ENE 20:05:40 10° SSE
Cosmos 1953 Rocket 4.2 19:56:58 10° SSE 20:00:56 37° E 20:04:55 10° NNE
Cosmos 2322 Rocket 2.8 19:56:52 10° SW 20:02:26 63° WNW 20:08:03 10° NNE
SL-08 ROCKET BODY 4.5 19:57:12 10° S 20:03:09 88° W 20:09:15 10° N
NOSS 7 (D) 3.7 20:01:42 10° SW 20:04:30 85° SE 20:07:11 10° NE
Cosmos 2237 4.2 19:59:22 10° SSW 20:05:06 83° ESE 20:10:53 10° NNE
Cosmos 2084 4.3 20:02:40 10° NW 20:06:59 45° NE 20:11:15 10° ESE
Cosmos 1328 3.8 20:03:20 10° S 20:07:14 62° E 20:11:11 10° NNE
SAR-Lupe-2 4.0 20:06:11 10° NNE 20:09:38 43° E 20:13:04 10° S
Cosmos 1455 2.9 20:08:05 10° NNW 20:11:51 54° W 20:15:37 10° S
Cosmos 1825 Rocket 3.6 20:12:09 10° S 20:16:34 79° E 20:21:04 10° NNE
ATLAS CENTAUR R/B 1.7 20:15:26 10° NNW 20:19:03 47° NE 20:22:16 12° ESE
Cosmos 1703 3.3 20:17:18 10° SSW 20:21:10 82° W 20:25:05 10° N
COSMOS 2428 3.3 20:17:09 10° S 20:22:19 38° ESE 20:27:32 10° NE
Cosmos 1844 3.9 20:18:22 10° NNW 20:24:09 74° WSW 20:29:32 12° SSE
SL-24 R/B - RUBIN 2 4.5 20:19:13 10° SSW 20:25:11 65° ESE 20:31:45 10° NE
Cosmos 2322 3.7 20:20:30 10° SSW 20:26:09 65° ESE 20:31:50 10° NNE
Meteor 1-27 4.4 20:25:01 10° N 20:30:44 64° ENE 20:35:46 14° SSE
Cosmos 1869 4.5 20:27:33 10° N 20:31:06 30° ENE 20:33:50 15° SE
CZ-4B DEB 4.4 20:28:15 12° S 20:31:15 78° WSW 20:34:38 10° NNW
Cosmos 1709 Rocket 4.1 20:26:26 10° S 20:32:44 88° E 20:39:08 10° N
NOSS 3-3 (A) 4.2 20:29:10 10° SSW 20:34:43 48° ESE 20:40:57 10° NE
NOSS 3-3 (C) 4.2 20:29:15 10° SSW 20:34:50 47° ESE 20:41:04 10° NE
Terra 2.0 20:31:40 14° SSE 20:35:39 61° ENE 20:40:22 10° N
Cosmos 2237 Rocket 3.6 20:33:12 14° SE 20:36:13 21° E 20:40:19 10° NE
Atlas Centaur 2 4.1 20:33:09 10° SSW 20:36:38 15° S 20:38:47 13° SSE
CARTOSAT-1 3.6 20:32:57 13° SSE 20:36:49 87° W 20:41:10 10° NNW
Cosmos 2333 4.2 20:32:19 10° SSW 20:37:56 77° ESE 20:43:40 10° NNE
Cosmos 2219 Rocket 2.3 20:32:53 10° S 20:38:19 55° ESE 20:43:48 10° NE
Cosmos 2360 Rocket 2.8 20:34:45 10° SW 20:40:20 60° WNW 20:45:58 10° NNE
Cosmos 1538 Rocket 4.2 20:35:56 10° S 20:41:09 56° ESE 20:46:22 10° NNE
Cosmos 2184 Rocket 4.4 20:42:26 14° SSE 20:47:26 47° E 20:53:25 10° NNE
Cosmos 2333 Rocket 2.2 20:42:28 10° SSW 20:48:06 70° ESE 20:53:49 10° NNE
Cosmos 1315 Rocket 2.8 20:47:07 10° N 20:51:14 87° E 20:54:13 18° SSE
ATLAS 2AS CENTAUR R/B 3.5 20:44:26 10° NW 20:51:58 52° NE 20:58:52 10° ESE
Resurs 01 Rocket 4.1 20:49:35 10° SW 20:52:17 16° W 20:54:59 10° NW
Cosmos-2242 4.4 20:50:35 10° NNW 20:54:33 35° W 20:58:30 10° SSW
Cosmos 1818 4.4 20:50:31 10° SW 20:55:50 56° NW 21:01:14 10° NNE
Cosmos 773 Rocket 4.2 20:52:51 10° SSW 20:58:09 75° WNW 21:03:29 10° NNE
Cosmos 2221 2.7 20:55:20 10° N 20:59:42 62° ENE 21:02:29 21° SSE
ERS-1 Rocket 3.5 20:56:51 13° S 21:01:19 54° W 21:06:17 10° NNW
GEOS 3 Rocket 4.1 20:57:07 10° NE 21:02:30 69° NW 21:07:51 10° SW
USA 215 3.2 20:59:11 10° ENE 21:05:45 72° SE 21:12:17 10° SW
Cosmos 1892 3.4 21:07:02 24° SE 21:08:43 37° E 21:12:15 10° NNE
Cosmos 2278 Rocket 2.3 21:03:29 10° NNW 21:09:11 73° ENE 21:13:09 20° SE
ATLAS 5 CENTAUR R/B 2.8 21:08:31 10° WSW 21:12:36 44° NW 21:17:14 10° NE
Cosmos 1844 Rocket 4.3 21:09:00 10° NW 21:13:31 26° WSW 21:18:01 10° SSW
Gblst 52 Del rocket 4.3 21:09:58 10° WNW 21:15:40 69° SSW 21:20:33 18° SE
Cosmos 1943 Rocket 4.3 21:12:40 10° N 21:16:43 19° NE 21:20:45 10° E
SPOT 5 3.8 21:13:56 13° SSW 21:18:05 43° W 21:22:41 10° NNW
SL-16 R/B 3.8 21:18:56 15° ESE 21:20:36 17° E 21:24:11 10° ENE
Lacrosse 5 rocket 3.6 21:18:08 10° NW 21:21:37 25° N 21:24:57 10° ENE
Spot 4 4.5 21:20:00 21° SE 21:22:53 46° ENE 21:27:26 10° N
Cosmos 2056 Rocket 4.4 21:18:47 10° NNW 21:23:57 44° ENE 21:27:39 18° SE
Nadezhda 3 Rocket 4.2 21:18:37 10° N 21:25:00 66° ENE 21:29:11 22° SSE
Cosmos 2058 3.0 21:25:00 26° S 21:27:10 63° E 21:31:16 10° NNE
Cosmos 2154 Rocket 4.1 21:23:04 21° SSE 21:27:13 60° E 21:33:19 10° NNE
BREEZE M DEB (TANK) 4.2 21:27:13 10° WSW 21:27:38 12° WSW 21:27:38 12° WSW
Cosmos 1408 3.2 21:29:06 30° SE 21:30:11 39° E 21:33:33 10° NNE
Meteor 2-17 Rocket 4.4 21:27:25 19° S 21:31:59 81° E 21:38:04 10° NNE
In-Cosmos 22 Rocket 4.0 21:29:55 21° S 21:33:34 78° E 21:38:55 10° NNE
Cosmos 2074 Rocket 4.1 21:29:15 15° SSW 21:34:33 81° W 21:40:48 10° N
TSX-5 3.7 21:32:21 10° NW 21:35:49 71° WSW 21:37:36 31° SSE
Cosmos 1076 Rocket 3.4 21:36:08 27° S 21:38:23 73° E 21:42:39 10° NNE
Cosmos 1680 Rocket 3.6 21:35:41 23° S 21:38:56 59° ESE 21:44:11 10° NNE
USA 267 3.2 21:34:05 19° SE 21:39:00 74° SW 21:45:36 10° WNW
CZ-4C R/B 4.4 21:39:18 10° NW 21:45:11 32° NNE 21:51:57 10° E
Cosmos 2151 3.6 21:47:18 30° SE 21:48:51 42° E 21:52:54 10° NNE
COSMOS 2455 4.2 21:43:38 10° NNW 21:49:07 34° NE 21:54:36 10° ESE
EO 1 Delta rocket 4.3 21:44:22 10° NNE 21:49:23 63° E 21:52:50 25° S
Cosmos 923 Rocket 4.1 21:52:20 17° SSW 21:56:27 80° WNW 22:01:48 10° NNE
ATLAS CENTAUR R/B 2.9 21:54:58 10° WNW 21:57:37 19° WSW 21:58:26 18° SW
Cosmos 1825 2.3 21:58:09 39° SSE 21:59:17 60° E 22:03:02 10° NNE
ALOS 2 3.1 21:58:03 28° SE 22:00:05 51° ENE 22:04:21 10° N
Cosmos 1340 4.3 21:59:38 19° ESE 22:00:16 20° E 22:03:05 10° NE
Cosmos 1933 4.5 21:57:10 10° N 22:00:50 33° ENE 22:02:24 24° ESE
Cosmos 2369 Rocket 4.0 21:56:44 10° N 22:01:21 25° NE 22:05:57 10° E
Cosmos 1980 3.7 21:56:55 17° SSW 22:01:22 90° E 22:07:03 10° NNE
Cosmos 1151 Rocket 3.9 21:57:19 10° N 22:01:23 38° ENE 22:03:13 25° ESE
Cosmos 44 3.8 22:05:14 31° SE 22:05:50 32° ESE 22:09:46 10° NE
COSMOS 2428 3.9 22:01:12 10° WSW 22:06:34 42° NW 22:11:58 10° NNE
Cosmos 371 Rocket 4.0 22:04:22 10° NNW 22:09:04 46° ENE 22:11:47 23° ESE
GP-B 3.6 22:05:26 10° NNE 22:09:45 48° E 22:11:23 32° SE
Cosmos 1295 Rocket 4.4 22:06:31 24° S 22:10:26 86° W 22:16:35 10° N
Terra 3.9 22:10:34 10° SW 22:13:48 19° W 22:17:08 10° NW
NOSS 0 Rocket 4.2 22:07:43 10° SW 22:13:51 69° WNW 22:20:03 10° NNE
Cosmos 1624 Rocket 4.0 22:09:15 10° NNW 22:14:30 79° WSW 22:16:57 32° SSE
NOSS 3-4 (A) 3.9 22:08:18 10° NW 22:15:13 67° SW 22:19:47 26° SSE
NOSS 3-4 (C) 3.9 22:08:24 10° NW 22:15:20 68° SW 22:19:55 26° SSE
Cosmos 962 Rocket 4.5 22:12:15 26° S 22:16:02 84° E 22:22:26 10° N
Nimbus 7 Rocket 4.4 22:13:21 10° NNE 22:19:17 67° ESE 22:22:22 29° S
SL-4 R/B 2.7 22:19:54 20° NE 22:19:54 20° NE 22:21:06 10° NNE
Cosmos 2237 Rocket 2.4 22:14:58 15° SW 22:19:40 73° WNW 22:25:25 10° NNE
Genesis I 3.1 22:18:36 30° SW 22:20:25 90° ESE 22:24:20 10° NE
CREW DRAGON DEMO-1 DEB 3.9 22:22:53 32° E 22:22:53 32° E 22:24:45 10° ENE
Cosmos 1782 4.5 22:18:38 10° NNE 22:21:56 25° ENE 22:23:34 19° ESE
Cosmos 2344 3.5 22:16:02 15° SSW 22:22:27 73° SE 22:30:32 10° NE
Cosmos 2219 Rocket 3.9 22:17:40 10° WSW 22:22:36 31° NW 22:27:34 10° NNE
Cosmos 1346 Rocket 4.1 22:28:04 24° ESE 22:28:51 26° E 22:32:10 10° NE
Thor Agena Rocket 3.9 22:25:01 10° N 22:30:03 60° WNW 22:33:18 22° SW
DELTA 2 R/B (1) 4.3 22:25:59 10° SW 22:36:22 - ESE 22:30:03 30° SSW
Cosmos 2333 Rocket 4.2 22:28:10 10° W 22:32:55 27° NW 22:37:44 10° NNE
RESURS DK-1 4.5 22:36:22 10° N 22:39:43 23° NE 22:43:03 10° E
Cosmos 1515 Rocket 3.9 22:37:20 10° N 22:41:38 56° ENE 22:43:15 34° SE
BREEZE-M DEB (TANK) 2.3 22:39:00 10° WNW 22:41:22 35° WSW 22:41:22 35° WSW
ATLAS 2AS CENTAUR R/B 3.1 22:35:48 10° NW 22:43:01 51° WSW 22:46:25 29° S
EO 1 Del DPAF 4.4 22:39:40 10° N 22:43:10 37° WNW 22:45:00 22° WSW
Cosmos 1766 Rocket 3.6 22:44:24 38° SSW 22:46:03 77° W 22:50:29 10° N
USA 215 4.0 22:42:18 10° NE 22:48:41 56° NNW 22:55:02 10° W
Gbstr 26 Del rocket 3.6 22:49:28 32° ESE 22:49:28 32° ESE 22:52:36 10° ENE
Okean 3 Rocket 3.8 22:47:02 33° SSW 22:48:54 63° WNW 22:53:19 10° N
Cosmos 1328 Rocket 3.5 22:44:42 10° NNW 22:49:02 76° W 22:50:25 42° S
Aureole 2 Rocket 2.9 22:46:35 10° NW 22:48:59 37° W 22:48:59 37° W
Cosmos 1606 3.1 22:47:33 10° NNW 22:51:21 52° W 22:52:19 40° SW
Cosmos 2278 Rocket 3.9 22:48:37 10° NW 22:52:39 20° W 22:54:59 16° SW
Cosmos 2218 Rocket 4.0 22:50:54 30° S 22:54:20 89° W 23:00:42 10° N
Cosmos 2297 3.8 22:49:01 10° NNW 22:54:41 62° WSW 22:57:11 33° S
Cosmos 864 Rocket 4.5 22:52:05 30° S 22:55:21 86° E 23:01:42 10° N
Cosmos 304 Rocket 4.2 22:50:46 10° NNW 22:55:34 58° ENE 22:58:03 27° SE
Cosmos 2228 Rocket 3.9 22:52:51 10° N 22:57:18 46° ENE 22:59:19 28° SE
Cosmos 1420 Rocket 4.1 22:53:13 10° NNW 22:58:27 64° WSW 23:00:36 35° S
Cosmos 2366 rocket 4.0 22:56:35 29° S 23:00:02 85° W 23:06:26 10° N
Cosmos 1943 Rocket 2.2 22:55:44 10° NNW 23:01:26 78° ENE 23:04:40 27° SE
Lacrosse 5 rocket 2.4 22:57:41 10° NW 23:01:33 43° NNE 23:05:12 10° E
Cosmos 1633 2.8 23:01:11 47° SE 23:01:48 55° E 23:05:21 10° NNE
Landsat 4 4.0 22:59:30 10° NNE 23:03:13 53° ESE 23:03:59 44° SE
SL-16 R/B 2.2 23:00:47 27° SSW 23:03:58 84° WNW 23:09:43 10° NNE
Cosmos 1821 Rocket 4.4 23:05:52 27° SSE 23:08:58 50° E 23:14:50 10° NNE
YAOGAN 11 4.0 23:09:09 41° S 23:10:38 82° WSW 23:15:06 10° NNW
Cosmos 1743 Rocket 3.6 23:12:36 41° SSE 23:13:57 66° E 23:18:17 10° NNE
Cosmos 332 Rocket 3.9 23:15:05 10° NNW 23:19:49 61° WSW 23:21:28 38° S
Cosmos 1048 Rocket 4.1 23:19:32 35° S 23:21:43 64° ESE 23:26:56 10° NNE
USA 267 4.4 23:21:25 22° SW 23:22:45 24° SW 23:27:52 10° WNW
Meteor 2-3 Rocket 3.9 23:21:02 29° SSW 23:23:55 68° WNW 23:29:38 10° N
Helios 1A 3.5 23:24:53 36° SW 23:25:57 45° W 23:29:59 10° NNW
Cosmos 405 3.0 23:25:04 10° NNW 23:28:35 64° W 23:29:08 54° SW
Meteor 1-29 4.1 23:25:38 10° NE 23:28:39 30° E 23:29:10 28° ESE
Meteor 1-10 Rocket 4.4 23:27:05 10° N 23:32:40 67° ENE 23:35:49 26° SSE
Cosmos 1452 Rocket 3.9 23:28:07 10° NNW 23:33:11 48° WSW 23:35:06 33° SSW
CZ-4C R/B 3.1 23:27:43 10° NW 23:34:47 78° NE 23:43:00 10° SE
Meteor 2-6 Rocket 4.1 23:29:36 10° N 23:35:08 83° ENE 23:37:54 30° SSE
PSLV R/B 3.5 23:30:54 10° NNE 23:35:08 77° ESE 23:36:34 41° S
Cosmos 389 Rocket 4.3 23:32:18 10° NNE 23:35:17 25° ENE 23:37:05 17° ESE
COSMOS 2455 2.9 23:29:29 10° NW 23:35:26 61° WSW 23:38:24 30° S
Cosmos 1340 3.9 23:34:23 26° WSW 23:35:40 33° WNW 23:39:08 10° N
ALOS 2 4.4 23:35:27 17° WSW 23:36:42 19° W 23:39:53 10° NW
Cosmos 1110 Rocket 4.0 23:31:56 10° NNW 23:37:15 81° ENE 23:40:16 26° SSE
Cosmos 1408 Rocket 4.5 23:35:56 26° WSW 23:37:46 39° WNW 23:41:56 10° N
SL-16 R/B 3.8 23:32:20 10° SE 23:37:58 37° ENE 23:43:37 10° N
Cosmos 1603 4.0 23:36:25 32° S 23:38:56 57° ESE 23:44:31 10° NE
Cosmos 1727 Rocket 4.5 23:38:59 10° NNW 23:44:56 49° W 23:48:04 27° SSW
Resurs 1-4 Rocket 3.8 23:41:16 10° NE 23:45:32 24° E 23:48:45 14° SE
Cosmos 2369 Rocket 2.1 23:40:20 10° NNW 23:45:56 71° WSW 23:48:49 29° S
Cosmos 1500 Rocket 3.8 23:44:49 35° SW 23:46:29 62° WNW 23:50:50 10° N
Cosmos 44 4.2 23:43:38 15° WSW 23:46:56 39° NW 23:51:10 10° NNE
SeaSat 1 3.6 23:45:03 10° NE 23:49:23 30° ESE 23:51:20 23° SSE
ISS -2.0 23:51:00 20° ESE 23:51:00 20° ESE 23:52:48 10° E
Helios 1B rocket 2.4 23:49:46 10° NNE 23:53:56 82° WNW 23:55:23 39° SSW
